633  
ASUS44 KHUN 280810  
RWRHUN  
 
WEATHER ROUNDUP FOR THE TENNESSEE VALLEY  
NATIONAL WEATHER SERVICE HUNTSVILLE AL  
300 AM CDT WED JUN 28 2017  
 
ALZ001>004-280900-  
NORTHWEST ALABAMA  
 
CITY SKY/WX TMP DP RH WIND PRES REMARKS
 
SHOALS AIRPORT CLEAR 63 60 90 CALM 30.09F  

 
 
ALZ005>007-016-280900-  
NORTH CENTRAL ALABAMA  
 
CITY SKY/WX TMP DP RH WIND PRES REMARKS
 
DECATUR AP PTCLDY 60 59 96 CALM 30.09F  
HUNTSVILLE AP CLEAR 65 61 87 E3 30.09F  
MERIDIANVILLE PTCLDY 57 55 94 CALM 30.10F  
REDSTONE ARSN CLEAR 60 58 91 CALM 30.09S  
VINEMONT AP FAIR 61 58 91 NE5 30.11F  

 
 
ALZ008>010-280900-  
NORTHEAST ALABAMA  
 
CITY SKY/WX TMP DP RH WIND PRES REMARKS
 
ALBERTVILLE CLEAR 61 61 100 NE5 30.09F  
FORT PAYNE CLEAR 55 52 88 CALM 30.11S  
SCOTTSBORO HCN N/A 57 N/A N/A MISG N/A  
VALLEY HEAD N/A 55 N/A N/A MISG N/A  

 
 
TNZ076-096-097-280900-  
SOUTHEASTERN MIDDLE TENNESSEE  
 
CITY SKY/WX TMP DP RH WIND PRES REMARKS
 
TULLAHOMA NOT AVBL  

 
   
..SURROUNDING SITES
 
 
 
CITY SKY/WX TMP DP RH WIND PRES REMARKS
 
ATLANTA PTCLDY 70 56 61 NE5 30.10S  
ANNISTON CLEAR 65 60 84 CALM 30.09F  
BIRMINGHAM CLEAR 71 57 61 NE6 30.10S  
CHATTANOOGA CLEAR 61 58 90 SW3 30.12S  
CORINTH FOG 64 63 94 CALM 30.07S VSB 1/2  
DALTON CLEAR 54 54 100 CALM 30.12S  
GADSDEN CLEAR 60 59 96 CALM 30.10S  
GOLDEN TRNGL CLEAR 70 59 68 E5 30.01F  
JACKSON TN CLEAR 63 62 97 CALM 30.06F  
MEMPHIS PTCLDY 73 63 70 SE8 30.03F  
NASHVILLE CLEAR 61 58 90 CALM 30.11S  
OXFORD MS FAIR 66 63 88 SE6 30.06F  
ROME CLEAR 58 57 97 NE5 30.10S  
SAVANNAH CLEAR 61 59 94 CALM 30.06F  
SELMER CLEAR 64 61 88 SE3 30.06F  
TUPELO MOCLDY 68 63 84 CALM 30.06S  
TUSCALOOSA CLEAR 68 67 96 CALM 30.05F  

 
   
..GULF COAST WEATHER
 
 
 
CITY SKY/WX TMP DP RH WIND PRES REMARKS
 
GULFPORT MOCLDY 77 69 76 E5 29.99S  
PASCAGOULA PTCLDY 73 68 84 CALM 29.99F  
MOBILE PTCLDY 74 68 81 E7 30.01F  
GULF SHORES PTSUNNY 73 72 97 NE9 29.99F  
PENSACOLA CLOUDY 76 70 82 NE5 29.99F  
DESTIN CLOUDY 80 80 100 NE6 30.00S  
PANAMA CITY MOCLDY 76 72 89 E5 30.00F  
APPALACHICOLA CLOUDY 75 75 100 NE6 29.99F  

 
 
 
 
CLICK HERE TO GO TO PREVIOUS BULLETINS.

The Nexlab AL Page
The Nexlab TN Page Main Text Page